{"data":{"norad_id":62497,"intl_designator":"2025-003L","name":"STARLINK-32729","alt_names":[],"object_type":"PAYLOAD","status":"ACTIVE","operator":null,"country":"US","launch_date":"2025-01-06","launch_site_code":"AFETR","launch_vehicle":null,"mission":null,"orbit_class":"UNKNOWN","rcs_meters":null,"size_class":null,"mass_kg":null,"dimensions":null,"purposes":["comms"],"wikipedia_slug":null,"has_3d_model":false,"image_url":null,"decayed_at":null,"tle_current":{"epoch":"2026-09-21T17:09:29.363616Z","epoch_age_seconds":69559,"freshness":"FRESH","line1":"1 62497U 25003L   26264.71492319  .00014104  00000+0  52081-3 0  9992","line2":"2 62497  43.0026 261.6979 0001303 269.2551  90.8151 15.27596995 96650","mean_motion":15.27596995,"eccentricity":0.0001303,"inclination_deg":43.0026,"raan_deg":261.6979,"arg_perigee_deg":269.2551,"mean_anomaly_deg":90.8151,"bstar":0.00052081,"rev_number":9665,"period_min":94.26569996624,"perigee_km":482.10420145001,"apogee_km":483.89221328505,"semimajor_km":6861.1352073675,"source":"CELESTRAK","updated_at":"2026-09-22T09:00:49.618239Z"}}}